CAPE
1595 1241 781 1437 766 119 120 137 140 80 40 27 49 107 109 133 256 121 0 1 117 587 891 1324 1932 1801 2048 2248 2211 2107 2305 1945 2032 1847 1839 1764 1969 2192 2007 1706 1910 2007 2076 1899 1852 1990 1955 1914 1762
1188 1162 1961 1709 270 170 188 125 110 96 61 83 78 86 105 79 2 0 0 3 356 773 839 1315 1819 2150 2119 2297 2346 1941 1900 1740 2030 1797 1864 1849 1680 1570 1846 2024 1871 1789 2020 1993 1938 1810 1833 1803 1815
1485 1815 2151 266 94 71 127 127 195 107 68 87 100 102 63 3 0 0 0 12 484 881 1111 1518 1922 2204 1876 2537 1960 1915 1681 1909 1881 2011 1537 1298 1067 935 960 1146 1365 1762 1890 1931 1833 1713 1286 1021 935
2027 2337 1546 201 108 83 108 193 150 98 82 45 145 59 15 2 5 0 0 22 612 977 1190 1526 1891 2043 2089 2282 2076 1834 1886 2067 2205 1847 1787 2080 1491 1379 1015 913 856 940 1316 1465 1379 1135 811 477 799
1489 1284 283 256 187 131 126 101 103 142 73 43 38 47 18 9 1 0 0 19 535 1006 1148 1330 1839 2079 2275 2161 1935 2069 2613 2376 1880 1997 2000 2030 2271 1914 1326 1144 871 818 878 955 1119 891 541 747 1758
1219 666 128 204 190 183 109 59 48 80 149 25 32 111 51 40 0 0 0 21 444 926 1175 1090 1706 2115 2259 2143 1835 2390 2154 2051 2123 2249 2239 2185 1989 1864 1688 1502 1333 1194 1079 1098 991 841 759 990 1633
688 330 139 144 182 149 86 29 14 7 9 39 26 31 82 57 0 0 0 13 279 761 1186 1240 1120 1842 2210 2127 2342 2505 2164 2049 2042 2159 2200 2307 2281 2065 2166 2000 1692 1501 1477 1380 1235 935 834 992 1153
918 456 133 131 81 116 33 80 0 2 3 0 8 11 128 85 56 13 0 118 228 657 1023 1282 1158 1636 2038 1785 2269 2643 2297 1994 1821 1888 2085 1925 2112 2023 2056 2475 2377 1881 1524 1236 1020 1011 1061 1161 1084
922 168 126 70 59 115 27 2 0 0 0 18 21 15 129 88 142 136 67 445 422 580 905 1164 1124 1637 1998 1586 2061 1995 2000 1995 1881 1823 1313 1540 1854 1968 1951 1659 1683 1851 2104 2327 2206 1974 1823 1685 1356
739 110 34 109 170 105 18 11 0 0 11 24 6 22 86 172 296 429 461 528 597 514 719 1037 940 758 1267 1240 1495 1357 1225 1605 1771 1957 2022 1812 1998 1593 1573 1625 1070 1286 1466 1679 1813 2277 2710 2294 1215
852 193 324 101 118 64 19 0 0 0 1 1 10 62 74 107 136 128 159 367 494 467 498 831 978 1230 1074 1255 913 702 834 1059 1539 2154 2302 2107 1730 2236 2078 2068 2194 2095 1857 2047 2184 2276 2133 2225 1913
643 681 159 119 86 67 47 29 0 2 7 0 0 37 112 181 148 63 251 490 420 514 416 581 1076 1044 1163 1038 648 670 785 1174 1336 1863 2070 1932 1710 2275 2130 2037 2013 1868 1944 2225 2187 2068 2545 2339 2340
264 150 88 150 83 95 59 8 0 0 1 0 0 39 96 109 126 95 256 494 526 531 539 674 783 1099 1142 1032 1147 1210 876 1189 1462 1643 2064 1706 1960 2408 1988 2154 1961 2037 1932 1887 2114 2456 2628 2545 2067
292 97 118 183 131 99 87 58 59 0 0 0 0 39 36 47 63 90 122 242 775 662 671 483 615 978 1042 883 1288 1680 1411 1321 1271 1492 1795 1819 1923 2690 1986 1893 1811 1885 2021 1955 2332 2809 2479 2302 1875
584 161 254 268 228 148 55 67 132 0 0 0 1 52 62 36 26 32 98 40 251 722 756 500 634 641 896 1005 1197 1550 1521 751 976 1291 1720 1924 2132 2341 2655 1735 1659 1792 1955 1949 2097 2260 2156 2082 1956
736 880 814 271 139 177 121 406 140 0 17 5 5 67 103 109 77 54 42 69 21 373 630 548 305 324 585 828 1192 1072 1159 1410 836 848 1171 1623 1812 2064 1795 1419 1360 1960 1595 1598 1734 1996 2111 2229 2044
472 544 663 503 146 233 167 565 217 13 19 104 54 113 142 213 210 216 118 87 53 134 538 587 456 238 415 952 905 1100 1306 1524 1243 547 542 1304 1735 1793 2313 1273 1442 1968 1185 1493 1749 1811 2096 2035 2061
271 322 473 646 442 415 361 521 318 91 3 31 57 191 174 162 230 297 307 209 134 138 352 578 524 435 610 737 983 1057 1264 1417 1513 1394 963 1192 1366 1756 1814 1158 1488 1824 1032 1284 2072 2291 1985 1880 1949
104 23 49 354 870 727 674 744 553 307 6 4 31 231 220 240 309 337 345 367 425 272 309 412 518 696 862 925 924 826 954 1147 1366 1544 1722 2050 1946 2020 2135 1256 1000 1175 1251 1729 2125 1956 1718 1755 1665
1 171 38 47 872 1064 946 982 724 503 294 5 2 61 125 261 386 478 496 488 564 648 632 603 605 829 1038 656 635 809 1302 1148 1300 1514 1880 2086 2070 2041 2172 2178 1592 1427 1383 1117 1751 2324 2044 1450 1444
0 0 6 159 881 877 810 928 874 630 470 332 21 5 30 109 272 437 606 674 682 821 1013 1076 1099 988 1188 845 804 1403 1668 1790 1426 1177 1182 1199 1590 2023 2162 2321 2286 2266 2198 1142 1019 1528 2157 1617 1368
20 0 0 353 631 384 571 226 884 845 643 405 346 74 7 44 122 264 448 645 764 827 941 1314 1536 1636 1504 1307 1214 1734 1672 1049 1147 1174 1064 1303 1347 1405 1524 1867 2192 2284 1824 1617 1847 1491 1654 1835 970
0 0 17 224 250 1 14 22 99 218 732 683 597 278 156 44 53 166 231 377 582 623 856 1120 1608 1945 1909 1942 1988 2343 1882 1294 1478 1326 1388 1558 1738 1585 1384 1296 1665 2060 2059 1978 2046 2340 2318 1716 1568
0 0 0 0 1 0 5 0 50 187 416 563 694 668 403 303 236 219 262 412 481 511 709 989 1556 2063 1957 1848 1538 1784 2047 2213 2096 1614 2002 1036 1287 1151 1225 1421 1843 1985 1966 1920 1947 2271 2608 2705 2169
0 0 2 0 0 1 0 0 74 522 837 1024 1096 996 687 631 512 646 542 513 644 749 590 488 1302 1504 1398 1157 1335 1478 1407 1480 1495 1553 2042 1354 1433 1413 1521 1635 1996 2054 2157 2088 2171 2710 2477 2485 2502
0 0 11 15 2 0 0 0 100 650 823 1088 1209 1383 970 762 755 769 656 983 1085 1115 1328 1163 1281 1404 957 786 1626 1874 1716 1632 1677 2132 2983 2846 2828 2919 2459 1909 2164 2473 2436 2350 2375 1909 1942 2864 2083
0 0 0 0 0 0 0 92 1 310 718 921 1047 1215 953 898 1167 1169 1264 1235 1327 803 524 456 88 45 55 130 701 367 216 15 26 268 397 83 152 26 275 1148 2268 2439 2375 2324 2645 2277 2074 2572 2043
0 0 0 0 0 0 0 0 7 299 695 987 803 837 921 1142 1025 1014 757 231 84 0 0 0 0 6 4 0 10 31 3 4 81 50 6 0 0 0 15 13 115 824 1885 2423 2525 2582 2620 2425 1983
0 0 0 0 0 0 0 20 0 1 480 942 938 865 743 122 23 20 4 0 0 0 0 0 0 0 0 0 0 5 2 0 1 1 0 0 0 0 4 15 22 38 194 1340 2101 2418 2499 2844 2869
0 0 0 0 0 0 0 1 0 49 676 255 84 1 1 0 0 0 0 0 0 0 0 0 0 0 0 0 0 0 0 0 0 0 0 0 0 0 0 0 0 7 1 54 874 1641 2022 2391 2598
CIN
-70 -73 -145 -74 -3 -2 0 -31 -30 0 -4 -7 -6 -32 -35 -71 -11 -7 0 0 -2 0 0 0 0 0 0 0 0 0 -1 -3 -1 -2 0 0 0 0 0 0 0 0 0 0 0 0 0 0 0
-115 -127 -49 -26 -24 0 -3 0 -25 -3 -6 -3 -12 -50 -35 -25 -73 0 0 0 -4 0 0 0 -3 0 0 0 0 -1 0 0 0 0 0 0 0 0 0 0 0 0 0 0 0 0 0 0 0
-102 -86 0 -1 -1 0 0 -22 -5 -16 -1 -12 -14 -27 -34 -4 0 0 0 -39 0 0 0 0 0 0 -3 -1 -2 0 -2 0 0 0 0 0 -1 -10 -7 -2 0 0 0 0 0 0 -6 -16 -15
-52 -27 -15 -12 0 0 -7 0 -2 -11 0 -1 0 -26 -55 0 0 0 0 -31 0 0 0 0 0 0 0 -1 -1 0 0 0 0 0 0 0 0 0 -10 -19 -23 -25 -5 -1 -7 -18 -30 -81 -39
-94 -23 0 -25 -2 0 0 -1 -5 0 -13 -3 -20 -35 -62 -9 0 0 0 -28 0 0 0 0 0 0 0 -1 0 0 0 0 0 0 0 0 0 0 -2 -18 -45 -54 -49 -43 -29 -47 -100 -81 -4
-23 -30 0 0 0 0 0 -4 -22 -21 -19 -8 -26 -67 -70 -53 0 0 0 -36 0 0 0 0 -1 0 0 0 -1 0 0 0 0 0 0 0 0 0 0 -11 -30 -40 -47 -47 -60 -81 -105 -89 -36
-19 0 0 0 0 -1 -13 -42 -17 -12 -81 -57 -48 -110 -97 -89 0 0 0 -63 -9 0 0 0 0 -1 0 -5 0 0 0 0 0 0 0 0 0 -1 -5 -16 -27 -35 -38 -47 -65 -104 -129 -126 -122
-39 -2 0 -2 -10 0 -29 -9 0 0 -25 -2 -68 -89 -77 -87 -118 -147 0 -35 -14 0 0 0 0 0 -5 -4 -1 0 0 0 -8 -4 -4 -20 -23 -20 -29 -28 -20 -35 -61 -95 -131 -133 -134 -140 -160
-69 0 0 0 0 0 -11 -9 0 0 0 -36 -56 -41 -47 -67 -50 -41 -60 0 -10 -2 0 0 -1 -1 -2 0 -2 -11 -14 -16 -27 -24 -55 -44 0 0 0 -71 -69 -64 -55 -44 -48 -72 -93 -116 -156
-13 0 0 -1 0 -1 -2 0 0 0 -20 -68 -54 -83 -60 -47 -19 -1 -3 0 0 -7 0 0 -5 -7 0 0 0 0 -1 0 0 -2 0 0 0 -10 -5 -33 -129 -112 -125 -109 -105 -82 -73 -120 -2
-11 0 -1 -14 -1 -5 -17 -3 0 0 0 -6 -78 -76 -60 -45 -32 -25 -6 0 0 -3 -2 0 0 0 0 0 0 0 0 -1 -7 -12 0 -9 -1 -1 0 0 0 0 -34 0 -12 -19 0 -1 0
-1 -5 -1 -9 -12 -15 -16 -24 0 0 0 0 0 -59 -33 -8 -11 -47 -1 0 -2 0 -2 -5 -1 -16 0 0 -2 -10 -2 0 0 -1 -9 -8 0 0 0 0 0 -1 -3 -1 0 0 0 0 0
-11 -2 -1 -5 -16 -9 -26 -9 0 0 0 0 0 -46 -20 -5 -6 -21 0 0 0 0 0 -5 -59 -8 -2 -11 0 0 0 0 0 0 -8 0 0 0 0 -2 0 0 0 -2 -2 0 -2 -4 0
-11 -14 -11 -17 -8 -10 -11 -23 -15 0 0 0 -1 -36 -31 -26 -12 -13 -4 -1 0 0 0 -64 -28 -14 -10 -19 -7 0 0 -1 -1 0 -1 -9 0 -4 0 0 0 0 0 -4 0 -2 0 0 0
-3 -4 -11 -13 -12 -12 -16 -5 -4 0 0 0 0 -20 -17 -29 -24 -8 -6 -52 -2 0 0 -51 -18 -33 -29 -30 -17 0 0 0 -1 0 -14 -12 -6 -8 -11 0 0 0 0 -3 -1 -1 0 0 0
0 0 0 -18 -14 -23 -9 0 -13 0 -10 -1 0 -2 -4 -29 -8 -5 -27 -36 -75 0 -1 -4 -21 -33 -38 -26 -8 -1 0 0 -1 0 0 -8 -8 -9 -9 0 0 -6 -2 -2 -2 0 0 0 0
-1 0 0 -8 -21 -22 -1 0 -12 -44 -12 -6 -30 -9 -7 0 -2 -8 -44 -49 -44 -27 -12 -10 -21 -33 -44 -40 -33 -24 -8 0 0 -6 -2 -1 -3 -3 -3 0 0 -15 -8 -2 -2 -4 0 0 0
0 0 0 0 -8 -13 -4 -1 -15 -31 0 -28 -13 0 0 0 0 0 0 -6 -30 -39 -34 -30 -30 -35 -43 -33 -30 -15 -8 -3 0 0 0 0 0 -4 -6 0 -1 -12 -10 0 0 -3 -8 -5 -3
-23 -55 -45 0 -2 -4 0 -1 -17 -18 -44 0 -49 0 0 0 0 0 0 -1 -5 -24 -35 -37 -45 -47 -36 -23 -9 -1 0 0 0 0 0 0 0 0 -1 0 0 -12 -9 0 -1 0 0 -2 -5
-9 -19 -80 -48 -7 0 0 0 -9 -19 0 -67 -50 -31 -13 -1 0 0 0 0 -3 -8 -23 -33 -46 -46 -41 -26 -25 -5 0 0 0 0 0 0 0 0 0 -1 0 0 0 -20 -3 0 0 0 0
0 0 0 -33 -4 0 0 0 -8 -16 -10 -2 -24 -15 -59 -19 0 0 0 0 0 -7 -17 -24 -34 -37 -36 -27 -18 -8 -2 -1 0 0 0 0 0 0 0 0 0 -2 -2 -1 -13 -1 0 0 -1
0 0 0 -14 0 -1 -2 -11 0 -2 -15 -24 -7 -35 0 -17 -15 -3 0 -3 -5 -5 -8 -15 -28 -30 -24 -29 -6 -2 -1 -1 -1 0 0 0 0 0 0 0 0 0 0 -1 0 -1 0 0 -22
0 0 -4 -26 -26 -6 -1 0 -35 -33 -2 -8 -5 -65 -15 -41 -28 -23 -16 0 0 -2 -2 -11 -14 -15 -22 -16 -24 0 -3 0 0 0 0 0 -6 -3 0 0 0 0 0 0 0 -3 0 -1 0
0 0 0 0 0 0 0 0 -1 -6 -35 -35 -9 -9 -60 -22 -2 -4 -1 -5 -26 -33 -25 -8 -28 -13 -10 -8 -28 -26 -18 -8 -7 -1 0 -1 0 0 0 0 0 0 0 0 0 0 0 0 -1
0 0 0 0 0 0 0 0 -73 -62 -89 -46 -29 -17 -2 -7 -18 -23 -31 -19 -62 -47 -111 -95 -9 -22 -28 -32 -12 -2 -26 -11 -5 -5 0 0 0 0 0 0 0 0 0 0 0 0 0 0 0
0 0 0 0 0 0 0 0 -64 -112 -99 -62 -67 -43 -6 -6 -6 -11 -11 -4 -18 -9 -1 -9 -2 -4 -36 -60 -18 -1 -1 0 0 0 0 0 0 0 0 -1 0 0 0 0 0 0 0 0 0
0 0 0 0 0 0 0 -68 -14 -102 -76 -75 -52 -15 -21 0 0 0 0 -8 -17 -27 -65 -66 -212 -157 -129 -126 -55 -46 -126 -171 -77 -114 -57 -129 -115 -126 -86 -6 0 0 0 0 0 0 0 0 0
0 0 0 0 0 0 0 0 0 -45 -62 -41 -55 -61 -40 -3 -1 -3 -40 -161 -175 0 0 0 0 -91 -1 0 -99 -113 -77 -144 -169 -170 -151 0 0 0 -256 -259 -165 -51 -4 0 0 0 0 0 0
0 0 0 0 0 0 0 0 0 -16 -89 -18 -29 -21 -30 -37 -82 -301 0 0 0 0 0 0 0 0 0 0 0 -169 -55 -9 -42 -52 0 0 0 0 -93 -303 -288 -249 -164 -27 0 0 0 0 0
0 0 0 0 0 0 0 -1 0 -183 -46 -149 -185 0 0 0 0 0 0 0 0 0 0 0 0 0 0 0 0 0 0 0 0 0 0 0 0 0 0 0 0 -350 -17 -249 -54 -7 0 0 0
Wind_Speed
11 6 2 5 4 4 16 17 16 18 10 4 7 4 13 13 11 12 15 12 13 12 12 12 9 11 10 13 13 12 12 13 14 14 14 13 13 14 14 13 13 13 15 14 14 14 14 14 13
4 3 5 4 4 11 10 14 16 11 13 13 10 10 6 9 10 17 14 15 12 11 10 13 9 11 11 12 12 11 11 14 14 14 14 12 13 13 13 14 14 13 13 14 13 13 12 11 10
4 3 5 3 8 12 11 13 11 13 14 10 6 11 6 7 16 11 18 16 13 11 12 12 11 12 11 9 11 11 12 14 13 13 13 13 13 13 12 12 13 12 12 12 12 11 10 10 7
4 5 5 6 17 11 13 13 15 14 10 5 12 11 10 8 9 11 17 16 13 11 13 11 11 11 10 9 11 11 13 13 13 12 12 10 12 13 13 12 11 12 11 11 10 10 9 8 6
4 4 5 14 18 14 12 11 9 11 9 9 4 11 12 9 12 17 16 13 13 12 13 13 10 10 9 8 10 10 14 13 12 12 11 13 16 13 13 12 12 11 11 9 9 8 8 9 10
3 5 7 13 15 13 10 9 8 8 10 11 16 19 10 12 18 16 14 12 12 12 11 12 10 8 8 9 9 12 13 12 11 12 11 14 14 14 13 12 11 10 9 8 7 6 7 9 9
4 1 9 15 14 12 10 6 7 10 10 10 12 18 13 16 16 15 13 11 11 11 10 11 11 9 7 7 9 12 11 10 10 9 9 10 11 12 11 11 10 8 7 5 4 4 5 6 7
2 3 10 10 11 13 9 8 6 10 12 12 17 9 17 19 17 15 13 11 10 10 10 9 8 11 4 9 10 10 10 9 8 7 7 4 10 9 7 10 8 5 4 2 1 1 3 3 5
2 3 9 10 10 11 11 12 8 8 13 7 3 17 20 19 17 16 13 12 10 8 8 9 9 9 5 7 9 10 9 7 5 7 3 7 7 8 9 8 5 3 1 1 2 2 1 4 5
5 8 10 6 8 12 10 10 12 12 12 13 15 20 19 18 16 15 15 13 13 12 10 8 12 11 8 6 5 5 5 6 6 5 4 7 6 6 5 6 3 2 3 6 6 5 9 12 3
1 7 4 4 8 13 13 11 9 13 10 13 21 22 19 17 15 13 12 12 12 12 9 9 12 3 7 6 4 4 4 4 5 4 5 6 5 6 6 5 5 5 0 5 3 4 2 5 5
5 4 4 8 12 12 11 10 12 5 12 14 19 19 17 16 13 12 10 10 8 13 12 9 12 7 5 4 3 5 4 4 4 5 3 3 3 4 4 5 5 5 5 6 5 5 5 6 4
8 7 11 11 13 13 12 11 10 6 10 18 19 17 16 13 12 10 10 10 11 12 13 8 7 7 5 3 5 2 4 4 4 3 4 3 4 4 5 4 5 5 5 6 6 6 6 5 4
7 10 14 12 13 12 13 13 5 9 17 20 18 16 14 13 13 11 10 10 13 12 14 12 12 8 6 3 3 2 2 4 3 2 4 2 4 4 3 3 4 5 6 6 6 6 6 5 5
6 15 12 12 11 9 13 9 13 15 19 19 17 14 13 12 11 10 10 10 10 11 12 12 12 9 7 5 5 3 3 4 3 2 2 2 4 4 5 4 4 6 4 5 4 5 4 5 5
5 8 9 10 10 9 10 13 14 17 19 18 16 13 12 11 11 9 10 9 9 11 11 12 10 11 9 6 4 2 2 3 3 4 3 1 3 3 4 4 4 6 5 4 5 5 6 6 6
5 7 8 8 10 9 9 11 15 16 16 16 14 13 12 12 10 9 10 10 11 10 11 11 10 10 9 7 5 4 3 5 3 4 5 4 4 4 6 5 5 6 5 4 5 5 5 5 5
6 5 5 7 9 7 7 11 15 16 15 16 15 14 13 12 12 11 9 9 10 11 11 11 10 8 7 5 5 5 4 5 4 4 5 3 4 3 4 5 4 6 6 5 6 6 6 7 5
1 2 1 5 7 10 8 11 14 16 14 15 15 14 14 13 12 12 10 10 10 11 12 12 12 11 8 7 6 6 6 5 5 5 5 5 5 5 4 6 4 4 5 5 7 7 8 7 6
9 7 5 6 9 10 10 10 13 16 14 14 16 15 15 15 13 12 12 11 11 12 11 12 13 12 11 8 6 5 4 4 5 4 4 6 7 7 7 6 6 4 5 5 5 5 7 8 3
10 9 4 1 11 4 8 10 13 14 14 12 12 14 14 15 15 12 12 12 13 13 14 13 13 12 12 11 7 6 6 5 6 6 6 6 6 7 8 8 7 6 6 6 4 6 5 7 7
7 2 6 8 13 6 10 5 12 14 14 14 12 12 12 14 12 13 12 12 13 13 13 14 14 13 11 11 10 8 7 8 6 4 5 6 8 9 10 9 8 7 8 7 7 7 5 6 8
6 1 4 6 8 4 9 9 10 8 12 15 14 9 11 12 13 14 14 12 11 10 11 11 11 11 11 11 12 8 9 7 6 5 6 7 8 8 9 10 9 9 8 9 8 8 8 7 7
11 9 7 4 8 9 7 7 12 8 5 2 8 17 14 13 7 4 1 3 4 8 8 8 9 8 6 8 7 10 10 8 6 8 7 10 8 6 7 8 9 10 11 11 10 11 11 10 9
10 11 8 9 10 10 6 7 13 8 3 5 7 11 16 13 10 8 7 6 6 10 8 3 3 6 8 6 6 9 7 8 9 10 7 10 9 9 8 7 9 10 11 11 12 11 12 11 11
13 12 11 11 10 8 5 7 9 6 3 3 8 14 15 15 9 7 5 8 8 7 9 9 8 6 2 4 6 4 3 5 6 7 7 6 7 8 11 12 12 12 13 12 12 11 12 12 11
7 10 7 13 6 11 11 8 6 5 6 4 5 11 12 13 10 11 13 14 15 14 14 13 11 12 13 11 9 4 4 5 7 7 6 7 7 8 9 12 11 12 12 13 13 11 13 12 13
6 7 8 8 13 12 8 5 2 7 6 10 10 10 8 11 13 13 15 13 14 14 14 13 13 12 7 1 6 6 4 3 3 4 7 8 8 8 9 10 11 10 10 9 10 13 14 14 12
8 9 5 7 5 10 9 3 6 5 5 11 9 11 11 16 13 12 13 12 12 12 11 12 10 12 10 9 8 8 8 8 9 8 9 10 11 11 11 11 12 11 11 9 9 12 15 15 15
5 6 8 8 11 8 10 4 6 8 11 11 10 11 13 13 12 11 11 9 9 10 10 9 11 9 9 7 9 10 10 10 10 11 11 12 13 13 14 13 13 13 12 11 9 11 12 14 16
Wind_Direction
178 194 255 234 197 94 87 93 114 107 104 105 128 64 81 22 3 87 134 127 134 120 125 111 99 99 98 94 93 89 89 84 83 81 83 88 86 79 91 89 85 84 88 87 88 87 89 83 82
125 167 225 253 163 102 94 128 121 128 115 127 101 128 84 72 89 121 129 133 132 122 121 102 104 102 101 102 98 93 90 84 83 79 76 85 81 80 82 81 91 85 90 89 88 86 83 79 72
178 241 270 330 67 87 109 121 110 112 133 138 105 57 48 82 124 121 124 139 132 133 117 102 99 95 92 86 98 93 91 87 84 83 81 83 89 85 82 82 82 85 85 86 86 83 74 65 63
238 198 216 97 90 66 108 113 120 136 126 106 113 86 93 113 115 125 143 139 136 127 109 111 96 89 97 93 96 94 93 92 83 82 78 74 94 90 88 84 86 89 89 87 83 73 61 50 45
248 241 135 92 81 89 95 109 138 141 123 130 144 114 107 104 118 133 141 145 138 136 122 117 97 97 105 101 95 97 90 84 85 81 75 77 79 85 86 87 89 92 91 88 82 72 59 53 64
216 268 123 96 97 104 105 113 133 133 119 112 113 116 103 127 141 143 145 152 141 125 123 126 105 90 104 101 99 93 86 83 78 74 65 72 77 79 84 89 90 91 93 94 88 74 62 63 89
329 304 88 101 109 112 102 103 123 120 129 129 134 121 127 146 144 144 149 154 137 132 130 132 123 109 107 103 87 86 87 85 79 75 74 74 77 84 89 86 88 94 97 97 91 77 71 72 88
320 241 119 118 102 110 120 94 118 118 92 111 139 142 151 141 149 149 152 149 149 144 135 125 125 106 127 162 95 94 86 83 82 80 73 113 113 119 120 135 84 85 97 105 111 99 85 90 97
270 117 98 104 107 121 126 119 88 103 132 106 99 135 131 143 151 153 156 154 155 152 144 145 124 107 184 114 115 133 115 110 140 142 109 212 64 68 94 75 51 26 360 267 250 239 235 227 169
274 90 79 87 94 126 131 121 124 142 126 119 109 117 134 149 159 157 166 166 170 164 162 153 142 155 159 124 122 109 124 80 62 57 36 76 67 57 44 86 127 168 224 212 214 222 228 240 117
34 71 68 100 123 134 131 119 128 136 127 143 143 142 149 156 162 162 169 167 171 169 162 174 135 202 151 118 143 143 132 134 119 86 20 59 37 22 53 64 64 62 42 56 156 145 30 61 5
150 97 120 117 137 130 126 122 134 44 122 135 140 145 151 163 164 165 167 161 175 174 171 182 127 179 149 137 161 128 142 140 155 83 59 59 67 58 36 37 54 45 50 31 22 22 13 11 29
73 90 111 119 134 125 128 122 111 92 141 133 136 148 155 161 161 160 155 155 167 174 164 144 128 188 141 188 102 77 140 164 104 151 92 36 34 29 39 48 46 40 36 32 19 20 23 357 44
115 108 106 123 121 130 128 134 122 113 138 136 145 149 152 156 163 157 162 158 163 179 165 123 184 166 162 153 160 152 145 136 190 159 78 86 358 23 27 44 37 43 32 21 18 4 10 14 24
130 123 116 131 140 146 138 134 102 134 139 144 152 148 145 151 154 164 163 158 175 173 166 170 185 174 173 174 180 184 195 156 203 191 179 6 338 31 327 19 6 21 16 356 19 345 14 10 2
153 201 159 148 163 160 239 118 136 151 150 153 153 150 155 155 163 164 159 163 159 170 173 178 188 174 176 168 195 228 188 230 220 214 215 215 308 1 300 325 354 7 332 342 346 358 348 12 360
205 120 111 148 196 152 228 114 146 162 163 155 162 159 164 161 173 165 164 165 157 167 172 186 191 185 180 178 203 215 226 247 238 228 224 177 274 318 318 312 344 332 313 320 330 345 347 349 346
101 144 125 129 172 186 178 109 154 170 170 167 170 167 168 173 178 174 179 167 160 168 177 185 190 201 193 201 215 224 220 231 244 240 248 211 240 279 295 306 327 312 302 304 3 331 337 308 336
310 294 118 133 144 189 169 138 162 175 176 170 178 177 181 181 171 168 182 179 174 176 182 191 196 193 202 204 216 222 239 233 241 254 251 263 258 260 270 283 298 305 276 339 302 307 299 308 343
251 254 208 122 155 229 151 152 160 176 183 173 178 179 186 186 175 177 181 190 194 184 191 197 205 202 207 208 220 254 269 268 298 312 310 267 267 271 262 270 293 320 307 269 291 305 308 301 344
227 245 170 127 157 207 163 149 160 171 184 174 188 182 189 188 183 181 189 198 197 199 198 201 206 211 213 232 213 219 249 267 238 232 232 233 254 267 263 265 269 285 271 281 290 275 291 299 314
173 289 225 158 193 172 220 111 169 165 183 185 188 186 195 195 194 181 197 205 212 208 202 208 204 208 208 212 235 232 236 249 314 294 285 308 285 274 269 254 258 259 282 294 267 241 266 279 292
106 178 156 193 241 254 176 272 124 165 183 185 189 185 205 201 196 196 200 208 217 211 211 205 208 213 219 207 231 224 237 269 246 267 289 270 273 269 271 271 266 263 260 266 254 263 239 261 271
146 151 151 201 264 238 124 264 131 110 84 177 203 183 190 209 197 244 223 219 214 215 228 201 198 218 216 231 240 252 251 259 285 291 315 300 285 275 253 262 265 267 269 263 262 262 253 254 269
221 206 226 215 212 243 105 225 73 98 83 286 252 222 190 175 183 175 198 184 170 162 176 245 150 176 191 204 253 270 290 288 282 282 273 282 287 280 278 275 266 269 264 261 262 256 256 261 259
213 250 254 259 256 261 118 250 98 92 79 285 242 223 195 185 166 156 111 102 99 81 80 83 76 65 43 31 350 282 334 301 292 318 309 313 297 297 312 299 285 279 273 265 263 257 249 244 247
166 225 330 284 231 272 270 117 180 120 79 18 123 141 159 166 140 112 97 88 79 73 84 81 71 53 29 30 23 9 27 15 342 343 324 327 316 331 318 315 305 298 284 277 263 254 257 255 253
296 122 211 215 267 259 240 259 185 156 118 107 88 94 109 121 103 97 87 87 81 78 75 67 73 77 79 354 360 18 13 356 314 326 329 317 312 310 314 316 313 305 291 280 282 272 254 250 253
167 200 236 293 299 291 264 164 77 118 129 119 119 129 99 73 71 92 85 77 77 64 65 49 58 62 53 29 353 353 339 336 326 320 315 309 309 307 305 306 305 304 300 290 285 274 273 274 275
297 315 233 235 199 236 296 67 123 127 125 112 98 96 86 83 84 85 83 80 66 61 51 50 21 27 40 8 348 340 334 327 317 307 305 305 299 296 291 291 291 292 293 294 275 270 274 280 272